Location: *
(48.2666°N, 7.7224°E)
Time: 23:09:47
(UTC+00:00)

Daily predictions for brighter satellites

Satellite Brightness Start Highest point End
(mag) Time Altitude Azimuth Time Altitude Azimuth Time Altitude Azimuth
Cosmos 1980 3.8 20:03:26 10° NNW 20:09:09 86° ENE 20:14:48 10° SSE
Okean O Rocket 2.0 20:08:54 10° S 20:13:09 64° WSW 20:17:28 10° NNW
CZ-4B R/B 4.2 20:08:35 10° S 20:13:38 44° W 20:18:42 10° NNW
Spot 2 Rocket 3.7 20:08:53 10° SSE 20:13:52 63° ENE 20:18:54 10° N
Cosmos 1151 Rocket 3.8 20:11:23 10° SSW 20:15:33 54° WNW 20:19:46 10° N
Helios 1B rocket 3.3 20:14:25 10° S 20:17:54 41° W 20:21:26 10° NNW
Cosmos 1743 Rocket 4.4 20:13:57 10° NNW 20:18:09 49° W 20:22:17 10° SSW
CZ-4B R/B 4.0 20:16:36 10° SSW 20:19:49 34° W 20:23:00 10° NNW
USA 238 DEB 4.2 20:15:02 10° NW 20:22:25 75° SW 20:30:23 10° SSE
USA 238 4.1 20:15:08 10° NW 20:22:31 76° SW 20:30:31 10° SSE
Cosmos 1605 Rocket 4.5 20:16:30 10° NNW 20:22:33 61° W 20:28:31 10° S
ERS-1 Rocket 3.3 20:19:06 10° S 20:24:05 67° WSW 20:29:05 10° NNW
Cosmos 1437 Rocket 4.1 20:21:32 10° SE 20:24:05 19° E 20:26:39 10° NE
Cosmos 921 Rocket 3.4 20:20:03 10° S 20:24:05 44° ESE 20:28:13 10° NNE
SL-14 R/B 3.4 20:28:23 10° S 20:32:13 56° E 20:36:05 10° NNE
SL-8 R/B 3.7 20:34:22 10° W 20:39:10 88° S 20:43:57 10° E
In-Cosmos 22 4.3 20:34:45 10° S 20:40:30 89° WNW 20:46:11 10° NNE
USA 290 4.5 20:41:41 10° ESE 20:42:10 10° E 20:42:40 10° E
Cosmos 2237 Rocket 2.7 20:37:20 10° NW 20:42:55 59° WSW 20:48:28 10° S
Cosmos 1459 Rocket 4.1 20:36:53 10° N 20:43:13 70° E 20:49:28 10° SSE
Meteor 1-15 Rocket 4.4 20:42:29 10° N 20:48:05 61° ENE 20:53:03 13° SSE
Cosmos 1802 Rocket 4.3 20:41:45 10° N 20:48:07 59° ENE 20:53:56 12° SSE
SL-4 R/B 3.7 20:47:40 14° SE 20:48:09 14° SE 20:50:17 10° ESE
Cosmos 1666 Rocket 4.2 20:45:27 10° NNW 20:49:48 54° W 20:54:08 10° S
Meteor 2-10 Rocket 4.1 20:44:17 10° NNW 20:49:56 62° W 20:55:22 10° S
USA 305 2.4 20:47:14 10° SW 20:51:06 57° SE 20:54:26 10° ENE
Cosmos 1953 3.8 20:50:44 10° NNE 20:53:45 22° ENE 20:56:11 13° ESE
Okean-O 4.1 20:51:59 10° SSW 20:55:56 33° W 20:59:55 10° NNW
Cosmos 1633 Rocket 3.7 20:55:44 10° NNW 20:59:55 51° W 21:04:06 10° S
Meteor 1-22 Rocket 4.1 20:54:52 10° NNW 21:00:14 89° ENE 21:05:14 13° S
Lacrosse 4 Rocket 1.4 20:56:37 10° NW 21:00:50 83° WSW 21:04:06 17° SSE
NOSS 3-4 (A) 3.7 20:56:54 10° SW 21:02:16 66° NW 21:08:14 10° NE
NOSS 3-4 (C) 3.6 20:57:01 10° SW 21:02:21 67° NW 21:08:20 10° NE
Cosmos 1818 3.6 20:59:51 10° SW 21:05:18 88° SE 21:10:48 10° NE
Cosmos 2016 Rocket 4.1 21:01:00 10° N 21:07:19 68° ENE 21:12:39 15° SSE
Cosmos 1455 3.5 21:08:41 10° NW 21:10:54 22° W 21:13:06 10° SSW
Ariane Rocket 3.2 21:09:58 13° S 21:14:32 67° WSW 21:19:37 10° NNW
Cosmos 2297 Rocket 3.4 21:09:32 10° SW 21:14:57 45° NW 21:20:25 10° NNE
USA 59 Rocket 2.5 21:15:12 10° NNE 21:15:56 11° NNE 21:16:42 10° NE
SPOT 3 Rocket 4.0 21:14:36 12° S 21:19:18 57° W 21:24:24 10° NNW
Cosmos 1470 Rocket 4.3 21:16:17 10° NNW 21:20:27 48° W 21:24:22 12° SSW
GP-B 3.4 21:16:53 10° N 21:21:11 52° E 21:23:59 20° SSE
Cosmos 1758 4.3 21:19:39 10° NNW 21:23:08 37° W 21:26:21 11° SSW
Cosmos 1269 Rocket 4.3 21:20:32 15° S 21:24:36 48° ESE 21:29:40 10° NNE
Cosmos 2084 Rocket 3.5 21:22:32 10° NW 21:26:39 64° SW 21:29:07 23° SSE
Meteor 1-12 Rocket 4.4 21:21:13 10° N 21:27:08 77° ENE 21:31:34 19° SSE
ATLAS CENTAUR R/B 2.3 21:25:34 10° NW 21:28:59 32° WSW 21:31:05 18° S
Cosmos 489 Rocket 4.5 21:24:17 10° NNW 21:30:31 79° ENE 21:35:02 20° SSE
Cosmos 1933 Rocket 3.6 21:27:15 10° NNW 21:31:39 78° W 21:34:40 20° S
SL-16 R/B 2.3 21:32:07 10° NNW 21:37:46 72° WSW 21:41:38 21° SSE
NOSS 3 (A) 4.4 21:35:49 10° NW 21:38:18 74° NE 21:39:34 31° SE
Terra 4.2 21:35:46 10° SW 21:38:40 16° W 21:41:36 10° NW
Cosmos 1515 Rocket 4.3 21:35:16 10° SSW 21:39:34 51° WNW 21:43:55 10° N
Meteor 1-23 Rocket 4.3 21:35:30 11° SSW 21:40:49 81° WNW 21:46:28 10° N
Cosmos 2344 4.2 21:33:55 10° NW 21:41:44 64° NE 21:52:06 10° SE
DELTA 2 DEB (DPAF) 3.8 21:38:24 10° NNE 21:42:17 64° ESE 21:44:30 24° S
Cosmos 1733 Rocket 3.9 21:38:39 10° N 21:42:44 37° ENE 21:45:01 21° SE
Cosmos 2227 Rocket 2.9 21:37:53 10° SW 21:43:26 55° WNW 21:49:00 10° NNE
RESURS DK-1 2.8 21:40:32 10° SW 21:44:29 60° WNW 21:48:29 10° NNE
Cosmos 2233 Rocket 4.0 21:38:41 10° N 21:45:03 90° E 21:49:37 20° S
Cosmos 1869 Rocket 3.5 21:41:34 10° N 21:45:59 83° W 21:48:34 24° S
COSMOS 2455 4.3 21:41:00 10° NW 21:46:00 28° WSW 21:50:27 12° SSW
Meteor 1-21 4.2 21:42:07 15° S 21:46:59 90° ESE 21:52:47 10° NNE
Cosmos 2263 Rocket 2.2 21:42:13 10° SSW 21:47:53 89° ESE 21:53:38 10° NNE
Meteor 1-16 Rocket 4.3 21:42:28 10° NNW 21:48:17 90° ENE 21:52:16 22° S
Okean 2 3.5 21:50:02 29° SSE 21:51:46 53° E 21:55:35 10° NNE
Okean 3 3.6 21:50:57 28° SSE 21:52:54 55° E 21:56:55 10° NNE
CZ-2C R/B 4.4 21:49:47 10° NNE 21:54:03 39° E 21:56:01 26° SSE
Aureole 3 Rocket 4.0 21:53:18 10° NNE 21:56:00 24° ENE 21:57:14 20° ESE
Cosmos 1437 Rocket 4.2 21:55:48 10° SW 21:58:57 30° WNW 22:02:11 10° N
Cosmos 1943 3.4 21:53:41 10° NNW 21:59:23 66° ENE 22:03:04 22° SE
ASTEX 1 3.7 21:55:01 10° NNE 21:59:52 51° E 22:02:22 26° SSE
SeaSat 1 4.3 21:58:47 10° E 22:02:39 24° NE 22:06:32 10° N
Geosat 4.4 22:03:39 10° NNE 22:08:37 65° WNW 22:13:33 10° SW
Cosmos 2219 3.4 22:03:02 10° SSW 22:08:46 75° WNW 22:14:33 10° NNE
Cosmos 1763 Rocket 3.9 22:04:20 10° NNW 22:09:24 54° ENE 22:12:23 23° SE
COBE Rocket 4.4 22:06:09 10° N 22:11:08 59° WNW 22:15:11 15° SSW
MetOp-A 3.8 22:10:28 28° SSE 22:12:59 71° ENE 22:17:30 10° N
Cosmos 1862 Rocket 3.8 22:11:29 31° SSE 22:13:24 56° E 22:17:43 10° NNE
Helios 1B 4.5 22:11:02 10° NNE 22:15:20 86° WNW 22:17:43 26° SSW
USA 290 2.9 22:14:13 21° SW 22:16:04 51° WNW 22:19:12 10° NNE
Cosmos 1603 4.3 22:11:22 10° NNW 22:16:50 50° NE 22:20:41 19° SE
Cosmos 1271 Rocket 4.2 22:16:29 19° ESE 22:17:02 20° E 22:19:44 10° NE
Cosmos 2082 3.8 22:12:58 12° SSW 22:18:13 83° WNW 22:24:00 10° NNE
Cosmos 2292 Rocket 2.4 22:18:12 52° S 22:18:50 89° E 22:21:44 10° N
USA 305 3.7 22:16:18 10° W 22:19:47 38° NNW 22:22:36 10° NE
Okean 1-7 3.5 22:19:41 32° SE 22:21:03 43° E 22:25:00 10° NNE
SL-8 R/B 4.1 22:16:47 10° W 22:21:18 43° SSW 22:22:54 32° SSE
ARIANE 5 R/B 2.6 22:20:49 32° SSE 22:22:52 83° ENE 22:27:22 10° NNW
SWAS 4.3 22:19:01 10° NNW 22:23:06 83° ENE 22:24:44 35° SE
SL-4 R/B 1.9 22:21:29 10° SW 22:25:32 58° SSE 22:29:30 10° ENE
Cosmos 1953 3.6 22:25:45 10° NNW 22:29:02 29° W 22:30:44 20° SW
Cosmos 1140 Rocket 3.7 22:26:48 17° SSW 22:30:48 69° WNW 22:35:57 10° NNE
Spot 4 3.9 22:30:33 31° SSE 22:32:52 76° ENE 22:37:43 10° N
Cosmos 1703 3.1 22:34:57 37° SSW 22:36:08 65° W 22:39:37 10° N
Cosmos 2227 4.2 22:33:33 28° S 22:36:30 62° ESE 22:42:02 10° NNE
PSLV R/B 4.5 22:33:13 10° NNE 22:37:11 35° E 22:38:27 29° SE
NOSS 3-1 (C) 4.0 22:30:09 10° NW 22:37:17 84° SW 22:43:28 22° SE
Lacrosse 4 Rocket 4.0 22:37:45 10° W 22:38:03 10° WSW 22:38:21 10° WSW
SJ 16-02 3.2 22:38:57 15° ESE 22:39:43 16° E 22:42:22 10° ENE
Cosmos 1072 Rocket 4.4 22:35:44 10° N 22:41:55 83° E 22:45:16 29° SSE
Cosmos 1892 2.3 22:43:00 51° SW 22:43:30 63° W 22:46:31 10° N
CZ-4C R/B 4.3 22:48:16 10° N 22:51:12 31° WNW 22:52:42 21° WSW
USA 307 3.2 22:54:11 36° ESE 22:54:11 36° ESE 22:57:23 10° ENE
Cosmos 407 Rocket 3.5 22:50:55 25° SSW 22:53:59 77° WNW 22:59:07 10° NNE
Cosmos 2228 Rocket 3.5 22:54:32 28° SSW 22:56:42 58° WNW 23:01:06 10° N
Cosmos 1844 Rocket 2.7 22:54:47 30° S 22:57:39 70° ESE 23:03:19 10° NNE
Cosmos 1703 Rocket 3.8 22:59:24 37° SSE 23:00:45 55° E 23:04:59 10° NNE
Cosmos 2251 Rocket 3.5 22:59:05 30° SSW 23:01:45 81° ESE 23:07:08 10° NNE
USA 234 4.0 22:56:17 10° ENE 23:01:58 31° SE 23:03:51 27° SSE
Cosmos 1782 Rocket 4.5 22:57:48 10° N 23:01:59 40° ENE 23:03:54 26° SE
Cosmos 1844 3.7 22:59:50 31° S 23:02:29 67° ESE 23:08:00 10° NNE
Cosmos 1816 Rocket 4.5 22:59:37 29° S 23:02:59 79° E 23:09:19 10° N
USA 59 Rocket 0.4 23:02:07 10° NNW 23:05:31 52° NE 23:08:26 19° ESE
Landsat 5 3.9 23:03:50 10° N 23:08:03 59° WNW 23:09:56 30° SW
Cosmos 1954 Rocket 4.1 23:07:46 34° S 23:09:53 60° ESE 23:15:00 10° NNE
ATLAS 3B R/B 4.1 23:04:13 10° NW 23:11:42 43° NNE 23:18:58 10° ESE
Cosmos 540 Rocket 3.7 23:07:30 10° NNW 23:12:32 57° WSW 23:14:32 34° S
Cosmos 1190 Rocket 3.9 23:12:32 32° SSW 23:15:01 82° ESE 23:20:19 10° NNE
Tsikada Rocket 4.3 23:12:12 29° SSE 23:15:20 57° E 23:21:28 10° NNE
ALOS 2 2.9 23:14:27 36° SSW 23:15:56 53° W 23:20:15 10° NNW
Meteor 1-24 Rocket 4.0 23:13:40 30° SSE 23:16:35 62° E 23:22:25 10° NNE
SL-16 R/B 4.4 23:19:05 10° WNW 23:20:48 11° W 23:22:32 10° WSW
Cosmos 1606 3.8 23:20:07 10° NNE 23:22:42 24° ENE 23:23:21 22° E
Cosmos 468 Rocket 4.0 23:18:16 10° NNW 23:23:23 65° WSW 23:25:26 35° S
Cosmos 841 Rocket 3.7 23:19:24 10° NNW 23:24:41 68° ENE 23:27:33 27° SE
NOSS 3-1 (A) 4.0 23:18:29 10° NW 23:25:39 84° SW 23:32:25 18° SE
Spot 1 4.4 23:21:18 10° NNE 23:26:14 79° WNW 23:28:37 32° SSW
Cosmos 1464 Rocket 4.4 23:21:42 10° NNW 23:27:46 52° W 23:31:00 27° SSW
ATLAS 2AS CENTAUR R/B 3.0 23:25:06 29° S 23:28:35 51° ESE 23:35:16 10° NE
BREEZE-M DEB (TANK) 3.9 23:28:12 32° S 23:29:02 34° SSE 23:32:06 10° E
Meteor 2-5 Rocket 3.9 23:27:46 31° S 23:30:42 74° E 23:36:39 10° NNE
Cosmos 2263 Rocket 4.5 23:28:17 10° W 23:32:35 22° NW 23:36:55 10° N
Meteor 2-17 Rocket 4.4 23:30:04 31° S 23:33:09 81° E 23:39:13 10° NNE
H-2A R/B 4.1 23:31:18 15° ESE 23:33:19 23° ENE 23:36:16 10° NNE
Cosmos 2034 Rocket 4.1 23:28:35 10° NNW 23:34:45 67° W 23:37:59 30° SSW
Cosmos 1833 Rocket 3.7 23:33:27 10° NNW 23:38:49 43° NE 23:44:08 10° SE
SeaSat 1 2.4 23:37:33 34° SSE 23:39:39 71° WSW 23:44:33 10° NNW
Cosmos 1908 Rocket 4.2 23:36:29 10° NNW 23:40:39 44° W 23:42:02 33° SW
Cosmos 1271 Rocket 3.9 23:50:19 24° WSW 23:51:33 30° WNW 23:54:48 10° N
CZ-2C R/B 4.0 23:49:59 10° NNE 23:55:02 37° E 23:57:35 23° SE
